Regional Weather Roundup
Issued by NWS

Home | Current Version | Previous Version | Graphics & Text | Print | Product List | Glossary On
Versions: 1 2 3 4 5 6 7 8 9 10 11 12 13 14 15 16 17 18 19 20 21 22 23 24 25 26 27 28 29 30 31 32 33 34 35 36 37 38 39 40 41 42 43 44 45 46 47 48 49 50
000
ASUS45 KCYS 202110
RWRWY

WYOMING REGIONAL WEATHER ROUNDUP
NATIONAL WEATHER SERVICE CHEYENNE WY
300 PM MDT MON OCT 20 2014

NOTE:  "FAIR" INDICATES FEW OR NO CLOUDS BELOW 12,000 FEET
WITH NO SIGNIFICANT WEATHER AND/OR OBSTRUCTIONS TO VISIBILITY.

WYZ001-202200-
YELLOWSTONE NATIONAL PARK

CITY           SKY/WX    TMP DP  RH WIND       PRES   REMARKS
LK YELLOWSTONE   N/A     57  35  43 VRB5      30.15F
W YELLOWSTONE  NOT AVBL

$$
WYZ002>013-054>058-071-098>099-202200-
NORTHERN WYOMING

CITY           SKY/WX    TMP DP  RH WIND       PRES   REMARKS
JACKSON        SUNNY     66  30  26 S7        30.08F
CODY           SUNNY     73  27  17 SE12      29.95F
GREYBULL       SUNNY     75  30  19 SE8       29.91F
WORLAND        SUNNY     76  33  21 NE6       29.92F
SHERIDAN       SUNNY     78  30  17 N5        29.90F
BUFFALO        SUNNY     79  18  10 VRB7      29.95F
GILLETTE       SUNNY     78  27  15 S12       29.92F
HULETT         FAIR      77  34  20 S12G17    29.95
NEWCASTLE      FAIR      72  34  25 SE8       29.98

$$
WYZ014>020-022>026-101>103-202200-
CENTRAL WYOMING

CITY           SKY/WX    TMP DP  RH WIND       PRES   REMARKS
BIG PINEY      MOSUNNY   67  29  24 SW14      30.12F
PINEDALE       CLEAR     63  28  27 S7        30.13F
DUBOIS         FAIR      64  23  20 W9G23     30.09S
LANDER         SUNNY     70  29  21 CALM      30.00F
RIVERTON       SUNNY     68  28  22 NE6       30.01F
CASPER         SUNNY     75  32  20 SW16      30.02F
DOUGLAS        SUNNY     78  34  20 W6        30.01F

$$
WYZ021-027>030-104>119-202200-
SOUTHERN WYOMING

CITY           SKY/WX    TMP DP  RH WIND       PRES   REMARKS
EVANSTON       MOSUNNY   68  30  24 SW17G23   30.12F
KEMMERER       PTCLDY    63  28  27 SW10G17   30.14F
FORT BRIDGER   FAIR      68  33  26 CALM      30.16S
ROCK SPRINGS   SUNNY     67  29  24 NW9       30.12F
DIXON          FAIR      69  34  27 SW12G21   30.17S
RAWLINS        SUNNY     69  32  25 SW17      30.13F
SARATOGA       FAIR      68  32  26 W15G22    30.15F
LARAMIE        PTSUNNY   66  30  26 CALM      30.14F
CHEYENNE       SUNNY     70  32  24 S17       30.12F
TORRINGTON     SUNNY     82  36  19 S17       29.97F
PINE BLUFFS    FAIR      73  32  21 S14G22    30.08F

$$


USA.gov is the U.S. government's official web portal to all federal, state and local government web resources and services.